[[{"header":{"parameterUnit":"m.s-1","parameterCategory":1,"la1":30.2992,"la2":30.254,"lo1":-89.0895,"lo2":-89.0443,"dy":0.0025,"dx":0.0025,"nx":19,"ny":19,"refTime":"2026-04-24T21:00:00:Z","depth":0,"parameterNumber":2,"parameterNumberName":"U-component_of_WINDS"},"data":[0,0,0,2.5444,2.5446,2.553,2.553,2.5661,2.5663,0,0,0,0,0,0,0,0,0,0,0,2.5434,2.5436,2.5444,2.5446,2.553,2.553,2.5661,2.5663,0,0,0,0,0,0,0,0,0,0,0,2.5434,2.5435,2.5437,2.5447,2.553,2.553,2.5661,2.5589,0,0,0,0,0,0,0,0,0,0,2.5504,2.5509,2.5435,2.5437,2.5447,2.553,2.553,2.5585,2.5593,2.5634,0,2.5674,0,2.5671,2.5673,2.5673,0,0,0,2.5435,2.5502,2.5511,2.5437,2.5448,2.553,2.5489,2.5589,2.5599,2.5645,2.5676,2.568,2.5673,2.5674,2.5675,2.5945,2.5947,0,0,2.5431,2.5457,2.5505,2.5518,2.5507,2.5486,2.5492,2.5595,2.563,2.5676,2.5682,2.5675,2.5675,2.5676,2.5944,2.5946,0,0,0,2.5425,2.5455,2.546,2.5514,2.5527,2.5489,2.5495,2.5625,2.5625,2.5684,2.5676,2.5676,2.5678,2.5942,2.5945,2.6058,0,0,0,2.5422,2.5451,2.5459,2.5476,2.5525,2.5577,2.5524,2.5618,2.5628,2.5676,2.5676,2.5679,2.594,2.5943,2.6051,2.6107,0,0,0,2.5424,2.5451,2.5468,2.5478,2.5514,2.5575,2.558,2.5619,2.5625,2.5674,2.568,2.5938,2.5943,2.6044,2.6096,2.6186,0,0,0,2.5434,2.5569,2.5471,2.5619,2.5514,2.5645,2.5579,2.5675,2.5731,2.5677,2.594,2.5944,2.6042,2.609,2.6179,2.6265,2.6304,0,0,2.5619,2.5592,2.5677,2.5592,2.5747,2.563,2.5802,2.5827,2.5808,2.5901,2.5907,2.6053,2.6096,2.6184,2.6513,2.6544,0,0,0,2.5745,2.5806,2.5841,2.5896,2.5919,2.5943,2.5939,2.5949,2.6026,2.5861,2.6109,2.6134,2.6185,2.6224,2.6251,2.6292,2.5964,2.5964,2.5963,2.6045,2.6012,2.615,2.6128,2.6182,2.6177,2.6217,2.6229,2.6181,2.624,2.6267,2.6471,2.6519,2.6538,2.6582,2.6311,2.6312,2.6312,2.6312,2.6312,2.6393,2.6327,2.6436,2.6402,2.6494,2.6494,2.6457,2.6538,2.6448,2.6491,2.6395,2.6573,2.6609,2.632,2.6319,2.6318,2.6317,2.6317,2.6504,2.6537,2.6547,2.6621,2.6683,2.6656,2.6736,2.6702,2.667,2.6713,2.6737,2.6735,2.6727,2.6727,2.6728,2.6728,2.6729,2.6729,2.673,2.6698,2.6706,2.6777,2.6814,2.6844,2.6879,2.6876,2.6905,2.6927,2.6896,2.6896,2.6841,2.6597,2.6536,2.6741,2.6739,2.6737,2.6736,2.6736,2.698,2.6911,2.7022,2.7052,2.7091,2.7154,2.711,2.7171,2.719,2.723,2.7167,2.6993,2.6962,2.6941,2.689,2.7174,2.7174,2.7174,2.7174,2.714,2.7122,2.7227,2.7278,2.7324,2.7295,2.7421,2.7421,2.7409,2.7418,2.7372,2.7302,2.7282,2.7264,2.7235,2.7187,2.7541,2.7541,2.7541,2.7311,2.7295,2.7409,2.7397,2.7426,2.7451,2.7568,2.7629,2.7601,2.7555,2.7425,2.7409,2.7295,2.726,2.721,2.7167,2.7078,0,0]},{"header":{"parameterUnit":"m.s-1","parameterCategory":1,"la1":30.2992,"la2":30.254,"lo1":-89.0895,"lo2":-89.0443,"dy":0.0025,"dx":0.0025,"nx":19,"ny":19,"refTime":"2026-04-24T21:00:00:Z","depth":0,"parameterNumber":3,"parameterNumberName":"V-component_of_WINDS"},"data":[0,0,0,1.4282,1.4283,1.432,1.4321,1.4375,1.4376,0,0,0,0,0,0,0,0,0,0,0,1.4276,1.4276,1.4282,1.4283,1.432,1.4321,1.4375,1.4376,0,0,0,0,0,0,0,0,0,0,0,1.4276,1.4276,1.4277,1.4283,1.432,1.4321,1.4375,1.4344,0,0,0,0,0,0,0,0,0,0,1.4307,1.4306,1.4276,1.4277,1.4284,1.432,1.4321,1.4343,1.4346,1.4362,0,1.4377,0,1.4377,1.438,1.438,0,0,0,1.428,1.4303,1.4309,1.4277,1.4284,1.432,1.4303,1.4345,1.4349,1.4366,1.4378,1.4379,1.4378,1.4381,1.4381,1.448,1.448,0,0,1.4278,1.4285,1.4306,1.4312,1.4307,1.4301,1.4304,1.4347,1.436,1.4378,1.4381,1.4379,1.4381,1.4381,1.4479,1.448,0,0,0,1.4274,1.4284,1.4288,1.4309,1.4316,1.4303,1.4305,1.4358,1.4359,1.4381,1.438,1.4381,1.4382,1.4479,1.448,1.4517,0,0,0,1.4273,1.4282,1.4288,1.4293,1.4315,1.4337,1.4315,1.4356,1.436,1.4379,1.4381,1.4383,1.4478,1.4479,1.4515,1.4534,0,0,0,1.4272,1.4282,1.4289,1.4293,1.4309,1.4337,1.434,1.4356,1.436,1.438,1.4383,1.4477,1.4479,1.4513,1.453,1.4561,0,0,0,1.4273,1.4323,1.429,1.4344,1.4309,1.436,1.4339,1.4377,1.4399,1.4382,1.4478,1.4479,1.4512,1.4528,1.4559,1.4589,1.4602,0,0,1.4341,1.4332,1.4363,1.4334,1.4392,1.4353,1.4417,1.4431,1.4426,1.4462,1.4464,1.4516,1.453,1.4561,1.4674,1.4685,0,0,0,1.4387,1.441,1.4423,1.4444,1.4455,1.4466,1.4468,1.4473,1.4503,1.4446,1.4535,1.4544,1.4561,1.4575,1.4584,1.4598,1.4486,1.4486,1.4486,1.4494,1.4484,1.4534,1.4528,1.4549,1.455,1.4565,1.4572,1.4557,1.4578,1.4589,1.4658,1.4675,1.4682,1.4696,1.4604,1.4604,1.4604,1.4604,1.4591,1.4621,1.4597,1.4638,1.4627,1.4661,1.4663,1.4651,1.468,1.465,1.4665,1.4633,1.4693,1.4706,1.4607,1.4606,1.4606,1.4606,1.4606,1.466,1.4672,1.4676,1.4703,1.4726,1.4718,1.4746,1.4735,1.4725,1.474,1.4749,1.4749,1.4746,1.4745,1.4745,1.4746,1.4746,1.4746,1.4746,1.4729,1.4732,1.4758,1.4771,1.4782,1.4795,1.4795,1.4805,1.4814,1.4803,1.4803,1.4785,1.4701,1.468,1.475,1.4749,1.4749,1.4748,1.4748,1.4831,1.4806,1.4845,1.4856,1.487,1.4892,1.4876,1.4898,1.4904,1.4919,1.4897,1.4837,1.4827,1.482,1.4802,1.4899,1.4899,1.4899,1.4899,1.4889,1.4882,1.4919,1.4936,1.4952,1.4941,1.4985,1.4984,1.498,1.4983,1.4967,1.4943,1.4936,1.493,1.4921,1.4904,1.5025,1.5025,1.5025,1.495,1.4944,1.4984,1.4978,1.4987,1.4995,1.5036,1.5056,1.5046,1.503,1.4985,1.498,1.494,1.4928,1.4912,1.4897,1.4867,0,0]}]]